Hauptseite
METAR-TAF:

METAR-TAF

Flughäfen :

Flugplatz Laval-Entrammes

Laval, Frankreich

Breite: 48-01-56N, Länge: 000-44-34W, Höhe: 101 m

Beobachtung

Neuester Wetterbericht von vor 35 Minuten, um 20:30 UTC
Wind 10 kt aus Süd/Südwest, variierte zwischen Süd und West/Südwest
Temperatur 7°C
Luftfeuchtigkeit 100%
Luftdruck 1008 hPa
Sichtweite: 5000 m
Leichtregen, Sprühregen, feuchter Dunst

METAR: LFOV 162030Z AUTO 21010KT 180V240 5000 -RADZ BR OVC004/// ///TCU 07/07 Q1008

Zeit: 22:05 (21:05 UTC)


TAF: fehlend

Wetterbeobachtungen und Prognosen von mehr als 4000 Flughäfen (METAR und TAF Bericht).

Die verfügbaren Stationen werden durch gelbe und rote Markierungen auf der Karte dargestellt.

Führen Sie die Maus auf sie, um den Namen der Station zu sehen.

Darauf klicken, um die Beobachtung von Wetterbeobachtungen und Prognosen zu sehen.

Um die Karte zu ändern : klicken Sie auf den grünen Tasten mit einem schwarzen Kreuz Zum Vergrößern, auf den grünen Button mit einem Gedankenstrich zu verkleinern, oder auf die grünen Pfeile für benachbarte Karten.


METAR-TAF: